カタログに戻る

STARLINK-34124

運用中通信VLEO
NORAD 64109·PAYLOAD·🇺🇸 United States

打ち上げ May 23, 2025 から Vandenberg Space Force Base

Loading…

次のパス (今後24時間)

TLE

最新Source: CelesTrak SupGP

元期: Sep 15, 2026, 02:47 UTC

1 64109C 25110P   26258.11645833 -.00021508  00000+0 -69225-3 0  2585
2 64109  53.1592 225.3982 0001626  92.8174 340.1014 15.31683268    11

AllMySatでSTARLINK-34124をリアルタイム追跡

Download on the App Store